owner,sensor,date,latitude,longitude,vertical_datum,direction_of_sea_water_velocity,sea_water_speed,upward_sea_water_velocity,qcFlag 
TABS,ioos:station:wmo:42051:1,2017-07-01T00:00:00Z,29.6350,-93.6417,2.0,344.5780852,8.122468837,-99999.0,'11133222,11111222,99999999' 
TABS,ioos:station:wmo:42051:1,2017-07-01T00:30:00Z,29.6350,-93.6417,2.0,14.4193894,10.16004429,-99999.0,'11111222,11111222,99999999' 
TABS,ioos:station:wmo:42051:1,2017-07-01T01:00:00Z,29.6350,-93.6417,2.0,0.706438426,12.9809861,-99999.0,'11111222,11111222,99999999' 
TABS,ioos:station:wmo:42051:1,2017-07-01T01:30:00Z,29.6350,-93.6417,2.0,21.19995182,15.20928664,-99999.0,'11111222,11111222,99999999' 
TABS,ioos:station:wmo:42051:1,2017-07-01T02:00:00Z,29.6350,-93.6417,2.0,12.28609781,13.81642501,-99999.0,'11111222,11111222,99999999' 
TABS,ioos:station:wmo:42051:1,2017-07-01T02:30:00Z,29.6350,-93.6417,2.0,24.70154587,20.07709391,-99999.0,'11111222,11111222,99999999' 
TABS,ioos:station:wmo:42051:1,2017-07-01T03:00:00Z,29.6350,-93.6417,2.0,40.53772229,18.53997303,-99999.0,'11111222,11111222,99999999' 
TABS,ioos:station:wmo:42051:1,2017-07-01T03:30:00Z,29.6350,-93.6417,2.0,52.41540935,23.88785884,-99999.0,'11111222,11111222,99999999' 
TABS,ioos:station:wmo:42051:1,2017-07-01T04:00:00Z,29.6350,-93.6417,2.0,44.8288695,23.65989856,-99999.0,'11111222,11111222,99999999' 
TABS,ioos:station:wmo:42051:1,2017-07-01T04:30:00Z,29.6350,-93.6417,2.0,55.76077368,32.11584344,-99999.0,'11111222,11111222,99999999' 
TABS,ioos:station:wmo:42051:1,2017-07-01T05:00:00Z,29.6350,-93.6417,2.0,60.73635658,28.21021446,-99999.0,'11111222,11111222,99999999' 
TABS,ioos:station:wmo:42051:1,2017-07-01T05:30:00Z,29.6350,-93.6417,2.0,60.63547827,31.95577256,-99999.0,'11111222,11111222,99999999' 
TABS,ioos:station:wmo:42051:1,2017-07-01T06:00:00Z,29.6350,-93.6417,2.0,77.97547567,22.80027412,-99999.0,'11111222,11111222,99999999' 
TABS,ioos:station:wmo:42051:1,2017-07-01T06:30:00Z,29.6350,-93.6417,2.0,67.12827414,30.61721901,-99999.0,'11111222,11111222,99999999' 
TABS,ioos:station:wmo:42051:1,2017-07-01T07:00:00Z,29.6350,-93.6417,2.0,75.1695064,28.16836878,-99999.0,'11111222,11111222,99999999' 
TABS,ioos:station:wmo:42051:1,2017-07-01T07:30:00Z,29.6350,-93.6417,2.0,80.91952947,18.50187288,-99999.0,'11111222,11111222,99999999' 
TABS,ioos:station:wmo:42051:1,2017-07-01T08:00:00Z,29.6350,-93.6417,2.0,78.12108851,24.29018114,-99999.0,'11111222,11111222,99999999' 
TABS,ioos:station:wmo:42051:1,2017-07-01T08:30:00Z,29.6350,-93.6417,2.0,69.86036995,31.889873,-99999.0,'11111222,11111222,99999999' 
TABS,ioos:station:wmo:42051:1,2017-07-01T09:00:00Z,29.6350,-93.6417,2.0,82.99354797,19.18325311,-99999.0,'11111222,11111222,99999999' 
TABS,ioos:station:wmo:42051:1,2017-07-01T09:30:00Z,29.6350,-93.6417,2.0,92.57823773,17.11732748,-99999.0,'11111222,11111222,99999999' 
TABS,ioos:station:wmo:42051:1,2017-07-01T10:00:00Z,29.6350,-93.6417,2.0,104.6896052,18.928711,-99999.0,'11111222,11111222,99999999' 
TABS,ioos:station:wmo:42051:1,2017-07-01T10:30:00Z,29.6350,-93.6417,2.0,137.5671697,17.20703635,-99999.0,'11111222,11111222,99999999' 
TABS,ioos:station:wmo:42051:1,2017-07-01T11:00:00Z,29.6350,-93.6417,2.0,162.701553,15.94101628,-99999.0,'11111222,11111222,99999999' 
TABS,ioos:station:wmo:42051:1,2017-07-01T11:30:00Z,29.6350,-93.6417,2.0,174.6839056,9.822245161,-99999.0,'11133222,11111222,99999999' 
TABS,ioos:station:wmo:42051:1,2017-07-01T12:00:00Z,29.6350,-93.6417,2.0,191.9330657,7.931405928,-99999.0,'11133222,11111222,99999999' 
TABS,ioos:station:wmo:42051:1,2017-07-01T12:30:00Z,29.6350,-93.6417,2.0,207.8436333,7.814768071,-99999.0,'11133222,11111222,99999999' 
TABS,ioos:station:wmo:42051:1,2017-07-01T13:00:00Z,29.6350,-93.6417,2.0,217.1295697,12.34212705,-99999.0,'11111222,11111222,99999999' 
TABS,ioos:station:wmo:42051:1,2017-07-01T13:30:00Z,29.6350,-93.6417,2.0,210.2961669,10.30776406,-99999.0,'11111222,11111222,99999999' 
TABS,ioos:station:wmo:42051:1,2017-07-01T14:00:00Z,29.6350,-93.6417,2.0,219.3570507,9.492944749,-99999.0,'11133222,11111222,99999999' 
TABS,ioos:station:wmo:42051:1,2017-07-01T14:30:00Z,29.6350,-93.6417,2.0,219.1059372,11.22454899,-99999.0,'11111222,11111222,99999999' 
TABS,ioos:station:wmo:42051:1,2017-07-01T15:00:00Z,29.6350,-93.6417,2.0,235.8829033,6.703737763,-99999.0,'11133222,11111222,99999999' 
TABS,ioos:station:wmo:42051:1,2017-07-01T15:30:00Z,29.6350,-93.6417,2.0,251.4401178,14.54651161,-99999.0,'11111222,11111222,99999999' 
TABS,ioos:station:wmo:42051:1,2017-07-01T16:00:00Z,29.6350,-93.6417,2.0,254.5315294,13.68570787,-99999.0,'11111222,11111222,99999999' 
TABS,ioos:station:wmo:42051:1,2017-07-01T16:30:00Z,29.6350,-93.6417,2.0,272.6194887,7.878229497,-99999.0,'11133222,11111222,99999999' 
TABS,ioos:station:wmo:42051:1,2017-07-01T17:00:00Z,29.6350,-93.6417,2.0,276.4687987,12.3385453,-99999.0,'11111222,11111222,99999999' 
TABS,ioos:station:wmo:42051:1,2017-07-01T17:30:00Z,29.6350,-93.6417,2.0,278.2336466,12.56955051,-99999.0,'11111222,11111222,99999999' 
TABS,ioos:station:wmo:42051:1,2017-07-01T18:00:00Z,29.6350,-93.6417,2.0,283.9538942,10.07736573,-99999.0,'11111222,11111222,99999999' 
TABS,ioos:station:wmo:42051:1,2017-07-01T18:30:00Z,29.6350,-93.6417,2.0,301.4829097,8.712485294,-99999.0,'11133222,11111222,99999999' 
TABS,ioos:station:wmo:42051:1,2017-07-01T19:00:00Z,29.6350,-93.6417,2.0,301.4474938,7.724571186,-99999.0,'11133222,11111222,99999999' 
TABS,ioos:station:wmo:42051:1,2017-07-01T19:30:00Z,29.6350,-93.6417,2.0,323.6097885,7.888276111,-99999.0,'11133222,11111222,99999999' 
TABS,ioos:station:wmo:42051:1,2017-07-01T20:00:00Z,29.6350,-93.6417,2.0,342.5006608,7.748612779,-99999.0,'11133222,11111222,99999999' 
TABS,ioos:station:wmo:42051:1,2017-07-01T20:30:00Z,29.6350,-93.6417,2.0,330.9456743,6.795115893,-99999.0,'11133222,11111222,99999999' 
TABS,ioos:station:wmo:42051:1,2017-07-01T21:00:00Z,29.6350,-93.6417,2.0,335.5281508,6.735057535,-99999.0,'11133222,11111222,99999999' 
TABS,ioos:station:wmo:42051:1,2017-07-01T21:30:00Z,29.6350,-93.6417,2.0,331.6545831,11.22600998,-99999.0,'11111222,11111222,99999999' 
TABS,ioos:station:wmo:42051:1,2017-07-01T22:00:00Z,29.6350,-93.6417,2.0,342.1421889,5.967520423,-99999.0,'11133222,11111222,99999999' 
TABS,ioos:station:wmo:42051:1,2017-07-01T22:30:00Z,29.6350,-93.6417,2.0,8.615838496,8.67792602,-99999.0,'11133222,11111222,99999999' 
TABS,ioos:station:wmo:42051:1,2017-07-01T23:00:00Z,29.6350,-93.6417,2.0,21.28832608,11.81626845,-99999.0,'11111222,11111222,99999999' 
TABS,ioos:station:wmo:42051:1,2017-07-01T23:30:00Z,29.6350,-93.6417,2.0,12.54200666,14.32174919,-99999.0,'11111222,11111222,99999999' 
TABS,ioos:station:wmo:42051:1,2017-07-02T00:00:00Z,29.6350,-93.6417,2.0,14.86315621,12.94304833,-99999.0,'11111222,11111222,99999999' 
TABS,ioos:station:wmo:42051:1,2017-07-02T00:30:00Z,29.6350,-93.6417,2.0,15.26789609,11.96219461,-99999.0,'11111222,11111222,99999999' 
TABS,ioos:station:wmo:42051:1,2017-07-02T01:00:00Z,29.6350,-93.6417,2.0,31.74289738,11.10041441,-99999.0,'11111222,11111222,99999999' 
TABS,ioos:station:wmo:42051:1,2017-07-02T01:30:00Z,29.6350,-93.6417,2.0,47.05756264,13.19604865,-99999.0,'11111222,11111222,99999999' 
TABS,ioos:station:wmo:42051:1,2017-07-02T02:00:00Z,29.6350,-93.6417,2.0,51.45086087,11.32886579,-99999.0,'11111222,11111222,99999999' 
TABS,ioos:station:wmo:42051:1,2017-07-02T02:30:00Z,29.6350,-93.6417,2.0,56.89221025,6.004939633,-99999.0,'11133222,11111222,99999999' 
TABS,ioos:station:wmo:42051:1,2017-07-02T03:00:00Z,29.6350,-93.6417,2.0,98.11483297,5.313200542,-99999.0,'11133222,11111222,99999999' 
TABS,ioos:station:wmo:42051:1,2017-07-02T03:30:00Z,29.6350,-93.6417,2.0,98.39728295,2.12275764,-99999.0,'11133222,11111222,99999999' 
TABS,ioos:station:wmo:42051:1,2017-07-02T04:00:00Z,29.6350,-93.6417,2.0,143.4474023,4.332066481,-99999.0,'11133222,11111222,99999999' 
TABS,ioos:station:wmo:42051:1,2017-07-02T04:30:00Z,29.6350,-93.6417,2.0,130.8632464,7.351850107,-99999.0,'11133222,11111222,99999999' 
TABS,ioos:station:wmo:42051:1,2017-07-02T05:00:00Z,29.6350,-93.6417,2.0,179.8119356,6.100032787,-99999.0,'11133222,11111222,99999999' 
TABS,ioos:station:wmo:42051:1,2017-07-02T05:30:00Z,29.6350,-93.6417,2.0,171.5964381,10.67460538,-99999.0,'11111222,11111222,99999999' 
TABS,ioos:station:wmo:42051:1,2017-07-02T06:00:00Z,29.6350,-93.6417,2.0,160.2470838,7.01262433,-99999.0,'11133222,11111222,99999999' 
TABS,ioos:station:wmo:42051:1,2017-07-02T06:30:00Z,29.6350,-93.6417,2.0,187.6679005,8.243718821,-99999.0,'11133222,11111222,99999999' 
TABS,ioos:station:wmo:42051:1,2017-07-02T07:00:00Z,29.6350,-93.6417,2.0,193.5649133,10.91447204,-99999.0,'11111222,11111222,99999999' 
TABS,ioos:station:wmo:42051:1,2017-07-02T07:30:00Z,29.6350,-93.6417,2.0,193.1608116,8.256875923,-99999.0,'11133222,11111222,99999999' 
TABS,ioos:station:wmo:42051:1,2017-07-02T08:00:00Z,29.6350,-93.6417,2.0,212.1444385,9.153108762,-99999.0,'11133222,11111222,99999999' 
TABS,ioos:station:wmo:42051:1,2017-07-02T08:30:00Z,29.6350,-93.6417,2.0,237.5209357,11.67627509,-99999.0,'11111222,11111222,99999999' 
TABS,ioos:station:wmo:42051:1,2017-07-02T09:00:00Z,29.6350,-93.6417,2.0,236.6931538,9.943223823,-99999.0,'11133222,11111222,99999999' 
TABS,ioos:station:wmo:42051:1,2017-07-02T09:30:00Z,29.6350,-93.6417,2.0,309.6463311,6.896093097,-99999.0,'11133222,11111222,99999999' 
TABS,ioos:station:wmo:42051:1,2017-07-02T10:00:00Z,29.6350,-93.6417,2.0,301.1456112,8.120498753,-99999.0,'11133222,11111222,99999999' 
TABS,ioos:station:wmo:42051:1,2017-07-02T10:30:00Z,29.6350,-93.6417,2.0,298.2029574,7.511784076,-99999.0,'11133222,11111222,99999999' 
TABS,ioos:station:wmo:42051:1,2017-07-02T11:00:00Z,29.6350,-93.6417,2.0,273.0245493,5.307391073,-99999.0,'11133222,11111222,99999999' 
TABS,ioos:station:wmo:42051:1,2017-07-02T11:30:00Z,29.6350,-93.6417,2.0,316.4894685,4.081384569,-99999.0,'11133222,11111222,99999999' 
TABS,ioos:station:wmo:42051:1,2017-07-02T12:00:00Z,29.6350,-93.6417,2.0,299.9082477,8.283073101,-99999.0,'11133222,11111222,99999999' 
TABS,ioos:station:wmo:42051:1,2017-07-02T12:30:00Z,29.6350,-93.6417,2.0,295.7931481,10.61781522,-99999.0,'11111222,11111222,99999999' 
TABS,ioos:station:wmo:42051:1,2017-07-02T13:00:00Z,29.6350,-93.6417,2.0,272.9325137,8.210749052,-99999.0,'11133222,11111222,99999999' 
TABS,ioos:station:wmo:42051:1,2017-07-02T13:30:00Z,29.6350,-93.6417,2.0,291.1887171,9.545286795,-99999.0,'11133222,11111222,99999999' 
TABS,ioos:station:wmo:42051:1,2017-07-02T14:00:00Z,29.6350,-93.6417,2.0,268.7208708,15.68390576,-99999.0,'11111222,11111222,99999999' 
TABS,ioos:station:wmo:42051:1,2017-07-02T14:30:00Z,29.6350,-93.6417,2.0,312.5545009,5.633702158,-99999.0,'11133222,11111222,99999999' 
TABS,ioos:station:wmo:42051:1,2017-07-02T15:00:00Z,29.6350,-93.6417,2.0,257.195343,5.189036519,-99999.0,'11133222,11111222,99999999' 
TABS,ioos:station:wmo:42051:1,2017-07-02T15:30:00Z,29.6350,-93.6417,2.0,230.1578781,8.100895012,-99999.0,'11133222,11111222,99999999' 
TABS,ioos:station:wmo:42051:1,2017-07-02T16:00:00Z,29.6350,-93.6417,2.0,192.043136,9.345699546,-99999.0,'11133222,11111222,99999999' 
TABS,ioos:station:wmo:42051:1,2017-07-02T16:30:00Z,29.6350,-93.6417,2.0,201.5421992,9.450132274,-99999.0,'11133222,11111222,99999999' 
TABS,ioos:station:wmo:42051:1,2017-07-02T17:00:00Z,29.6350,-93.6417,2.0,206.0293209,7.178091668,-99999.0,'11133222,11111222,99999999' 
TABS,ioos:station:wmo:42051:1,2017-07-02T17:30:00Z,29.6350,-93.6417,2.0,234.8752573,7.091290433,-99999.0,'11133222,11111222,99999999' 
TABS,ioos:station:wmo:42051:1,2017-07-02T18:00:00Z,29.6350,-93.6417,2.0,232.2402575,6.956838362,-99999.0,'11133222,11111222,99999999' 
TABS,ioos:station:wmo:42051:1,2017-07-02T18:30:00Z,29.6350,-93.6417,2.0,233.9060463,8.266758736,-99999.0,'11133222,11111222,99999999' 
TABS,ioos:station:wmo:42051:1,2017-07-02T19:00:00Z,29.6350,-93.6417,2.0,216.7074822,8.482033954,-99999.0,'11133222,11111222,99999999' 
TABS,ioos:station:wmo:42051:1,2017-07-02T19:30:00Z,29.6350,-93.6417,2.0,205.4630751,8.140792345,-99999.0,'11133222,11111222,99999999' 
TABS,ioos:station:wmo:42051:1,2017-07-02T20:00:00Z,29.6350,-93.6417,2.0,189.8555711,9.814850992,-99999.0,'11133222,11111222,99999999' 
TABS,ioos:station:wmo:42051:1,2017-07-02T20:30:00Z,29.6350,-93.6417,2.0,195.012916,10.38445954,-99999.0,'11111222,11111222,99999999' 
TABS,ioos:station:wmo:42051:1,2017-07-02T21:00:00Z,29.6350,-93.6417,2.0,194.4318187,11.23451824,-99999.0,'11111222,11111222,99999999' 
TABS,ioos:station:wmo:42051:1,2017-07-02T21:30:00Z,29.6350,-93.6417,2.0,194.6231756,9.466662559,-99999.0,'11133222,11111222,99999999' 
TABS,ioos:station:wmo:42051:1,2017-07-02T22:00:00Z,29.6350,-93.6417,2.0,210.3895114,9.587251952,-99999.0,'11133222,11111222,99999999' 
TABS,ioos:station:wmo:42051:1,2017-07-02T22:30:00Z,29.6350,-93.6417,2.0,216.0084581,4.524511023,-99999.0,'11133222,11111222,99999999' 
TABS,ioos:station:wmo:42051:1,2017-07-02T23:00:00Z,29.6350,-93.6417,2.0,244.453072,5.031947933,-99999.0,'11133222,11111222,99999999' 
TABS,ioos:station:wmo:42051:1,2017-07-02T23:30:00Z,29.6350,-93.6417,2.0,249.2535473,3.528809998,-99999.0,'11133222,11111222,99999999' 
TABS,ioos:station:wmo:42051:1,2017-07-03T00:00:00Z,29.6350,-93.6417,2.0,270.7707361,5.950537791,-99999.0,'11133222,11111222,99999999' 
TABS,ioos:station:wmo:42051:1,2017-07-03T00:30:00Z,29.6350,-93.6417,2.0,286.7523521,3.122515012,-99999.0,'11133222,11111222,99999999' 
TABS,ioos:station:wmo:42051:1,2017-07-03T01:00:00Z,29.6350,-93.6417,2.0,322.575986,8.474396734,-99999.0,'11133222,11111222,99999999' 
TABS,ioos:station:wmo:42051:1,2017-07-03T01:30:00Z,29.6350,-93.6417,2.0,1.232964471,7.901828902,-99999.0,'11133222,11111222,99999999' 
TABS,ioos:station:wmo:42051:1,2017-07-03T02:00:00Z,29.6350,-93.6417,2.0,353.8450565,6.155485359,-99999.0,'11133222,11111222,99999999' 
TABS,ioos:station:wmo:42051:1,2017-07-03T02:30:00Z,29.6350,-93.6417,2.0,354.1239912,7.227980354,-99999.0,'11133222,11111222,99999999' 
TABS,ioos:station:wmo:42051:1,2017-07-03T03:00:00Z,29.6350,-93.6417,2.0,354.6443979,7.392272993,-99999.0,'11133222,11111222,99999999' 
TABS,ioos:station:wmo:42051:1,2017-07-03T03:30:00Z,29.6350,-93.6417,2.0,349.38058,9.767292358,-99999.0,'11133222,11111222,99999999' 
TABS,ioos:station:wmo:42051:1,2017-07-03T04:00:00Z,29.6350,-93.6417,2.0,345.5188546,9.677463511,-99999.0,'11133222,11111222,99999999' 
TABS,ioos:station:wmo:42051:1,2017-07-03T04:30:00Z,29.6350,-93.6417,2.0,354.7595689,8.977527499,-99999.0,'11133222,11111222,99999999' 
TABS,ioos:station:wmo:42051:1,2017-07-03T05:00:00Z,29.6350,-93.6417,2.0,9.672588963,6.725607779,-99999.0,'11133222,11111222,99999999' 
TABS,ioos:station:wmo:42051:1,2017-07-03T05:30:00Z,29.6350,-93.6417,2.0,16.69941564,7.725826817,-99999.0,'11133222,11111222,99999999' 
TABS,ioos:station:wmo:42051:1,2017-07-03T06:00:00Z,29.6350,-93.6417,2.0,40.47232979,7.703220106,-99999.0,'11133222,11111222,99999999' 
TABS,ioos:station:wmo:42051:1,2017-07-03T06:30:00Z,29.6350,-93.6417,2.0,58.22391666,11.1279468,-99999.0,'11111222,11111222,99999999' 
TABS,ioos:station:wmo:42051:1,2017-07-03T07:00:00Z,29.6350,-93.6417,2.0,70.54169361,8.675511512,-99999.0,'11133222,11111222,99999999' 
TABS,ioos:station:wmo:42051:1,2017-07-03T07:30:00Z,29.6350,-93.6417,2.0,77.88287114,10.71881057,-99999.0,'11111222,11111222,99999999' 
TABS,ioos:station:wmo:42051:1,2017-07-03T08:00:00Z,29.6350,-93.6417,2.0,74.68779272,11.4359652,-99999.0,'11111222,11111222,99999999' 
TABS,ioos:station:wmo:42051:1,2017-07-03T08:30:00Z,29.6350,-93.6417,2.0,69.1903637,14.8058502,-99999.0,'11111222,11111222,99999999' 
TABS,ioos:station:wmo:42051:1,2017-07-03T09:00:00Z,29.6350,-93.6417,2.0,80.5711247,16.90843872,-99999.0,'11111222,11111222,99999999' 
TABS,ioos:station:wmo:42051:1,2017-07-03T09:30:00Z,29.6350,-93.6417,2.0,79.20885325,15.5957943,-99999.0,'11111222,11111222,99999999' 
TABS,ioos:station:wmo:42051:1,2017-07-03T10:00:00Z,29.6350,-93.6417,2.0,94.55993942,19.62210998,-99999.0,'11111222,11111222,99999999' 
TABS,ioos:station:wmo:42051:1,2017-07-03T10:30:00Z,29.6350,-93.6417,2.0,87.93204864,19.95299476,-99999.0,'11111222,11111222,99999999' 
TABS,ioos:station:wmo:42051:1,2017-07-03T11:00:00Z,29.6350,-93.6417,2.0,82.3438588,15.38716998,-99999.0,'11111222,11111222,99999999' 
TABS,ioos:station:wmo:42051:1,2017-07-03T11:30:00Z,29.6350,-93.6417,2.0,67.61643701,8.954691508,-99999.0,'11133222,11111222,99999999' 
TABS,ioos:station:wmo:42051:1,2017-07-03T12:00:00Z,29.6350,-93.6417,2.0,72.47447261,7.571446361,-99999.0,'11133222,11111222,99999999' 
TABS,ioos:station:wmo:42051:1,2017-07-03T12:30:00Z,29.6350,-93.6417,2.0,92.58689943,6.646773653,-99999.0,'11133222,11111222,99999999' 
TABS,ioos:station:wmo:42051:1,2017-07-03T13:00:00Z,29.6350,-93.6417,2.0,70.01694021,5.384161959,-99999.0,'11133222,11111222,99999999' 
TABS,ioos:station:wmo:42051:1,2017-07-03T13:30:00Z,29.6350,-93.6417,2.0,100.766766,7.654756691,-99999.0,'11133222,11111222,99999999' 
TABS,ioos:station:wmo:42051:1,2017-07-03T14:00:00Z,29.6350,-93.6417,2.0,85.074496,6.172795153,-99999.0,'11133222,11111222,99999999' 
TABS,ioos:station:wmo:42051:1,2017-07-03T14:30:00Z,29.6350,-93.6417,2.0,94.41195181,6.629645541,-99999.0,'11133222,11111222,99999999' 
TABS,ioos:station:wmo:42051:1,2017-07-03T15:00:00Z,29.6350,-93.6417,2.0,67.44004235,5.890772445,-99999.0,'11133222,11111222,99999999' 
TABS,ioos:station:wmo:42051:1,2017-07-03T15:30:00Z,29.6350,-93.6417,2.0,35.8822638,2.900431002,-99999.0,'11133222,11111222,99999999' 
TABS,ioos:station:wmo:42051:1,2017-07-03T16:00:00Z,29.6350,-93.6417,2.0,144.9749982,8.572444226,-99999.0,'11133222,11111222,99999999' 
TABS,ioos:station:wmo:42051:1,2017-07-03T16:30:00Z,29.6350,-93.6417,2.0,175.6167149,5.626455367,-99999.0,'11133222,11111222,99999999' 
TABS,ioos:station:wmo:42051:1,2017-07-03T17:00:00Z,29.6350,-93.6417,2.0,214.7746608,9.082070249,-99999.0,'11133222,11111222,99999999' 
TABS,ioos:station:wmo:42051:1,2017-07-03T17:30:00Z,29.6350,-93.6417,2.0,189.562397,4.695242273,-99999.0,'11133222,11111222,99999999' 
TABS,ioos:station:wmo:42051:1,2017-07-03T18:00:00Z,29.6350,-93.6417,2.0,202.5377401,5.922313737,-99999.0,'11133222,11111222,99999999' 
TABS,ioos:station:wmo:42051:1,2017-07-03T18:30:00Z,29.6350,-93.6417,2.0,179.5353973,9.870324209,-99999.0,'11133222,11111222,99999999' 
TABS,ioos:station:wmo:42051:1,2017-07-03T19:00:00Z,29.6350,-93.6417,2.0,200.0224409,7.418389313,-99999.0,'11133222,11111222,99999999' 
TABS,ioos:station:wmo:42051:1,2017-07-03T19:30:00Z,29.6350,-93.6417,2.0,234.0204375,4.374528546,-99999.0,'11133222,11111222,99999999' 
TABS,ioos:station:wmo:42051:1,2017-07-03T20:00:00Z,29.6350,-93.6417,2.0,193.356881,4.501777427,-99999.0,'11133222,11111222,99999999' 
TABS,ioos:station:wmo:42051:1,2017-07-03T20:30:00Z,29.6350,-93.6417,2.0,198.9786249,3.997299088,-99999.0,'11133222,11111222,99999999' 
TABS,ioos:station:wmo:42051:1,2017-07-03T21:00:00Z,29.6350,-93.6417,2.0,224.6300401,3.288114961,-99999.0,'11133222,11111222,99999999' 
TABS,ioos:station:wmo:42051:1,2017-07-03T21:30:00Z,29.6350,-93.6417,2.0,230.3554968,2.272663635,-99999.0,'11133222,11111222,99999999' 
TABS,ioos:station:wmo:42051:1,2017-07-03T22:00:00Z,29.6350,-93.6417,2.0,299.1309124,2.198021838,-99999.0,'11133222,11111222,99999999' 
TABS,ioos:station:wmo:42051:1,2017-07-03T22:30:00Z,29.6350,-93.6417,2.0,334.7493853,4.289906759,-99999.0,'11133222,11111222,99999999' 
TABS,ioos:station:wmo:42051:1,2017-07-03T23:00:00Z,29.6350,-93.6417,2.0,351.8537241,4.939848176,-99999.0,'11133222,11111222,99999999' 
TABS,ioos:station:wmo:42051:1,2017-07-03T23:30:00Z,29.6350,-93.6417,2.0,359.7012794,5.75007826,-99999.0,'11133222,11144222,99999999' 
TABS,ioos:station:wmo:42051:1,2017-07-04T00:00:00Z,29.6350,-93.6417,2.0,3.933702649,11.80781521,-99999.0,'11111222,11111222,99999999' 
TABS,ioos:station:wmo:42051:1,2017-07-04T00:30:00Z,29.6350,-93.6417,2.0,359.6730774,12.26019984,-99999.0,'11111222,11144222,99999999' 
TABS,ioos:station:wmo:42051:1,2017-07-04T01:00:00Z,29.6350,-93.6417,2.0,7.244029253,14.3545707,-99999.0,'11111222,11111222,99999999' 
TABS,ioos:station:wmo:42051:1,2017-07-04T01:30:00Z,29.6350,-93.6417,2.0,358.5857906,18.63567815,-99999.0,'11111222,11111222,99999999' 
TABS,ioos:station:wmo:42051:1,2017-07-04T02:00:00Z,29.6350,-93.6417,2.0,11.51444439,24.19696262,-99999.0,'11111222,11111222,99999999' 
TABS,ioos:station:wmo:42051:1,2017-07-04T02:30:00Z,29.6350,-93.6417,2.0,16.86157582,16.58291289,-99999.0,'11111222,11111222,99999999' 
TABS,ioos:station:wmo:42051:1,2017-07-04T03:00:00Z,29.6350,-93.6417,2.0,13.5601085,27.42445077,-99999.0,'11111222,11111222,99999999' 
TABS,ioos:station:wmo:42051:1,2017-07-04T03:30:00Z,29.6350,-93.6417,2.0,27.27340414,24.96537002,-99999.0,'11111222,11111222,99999999' 
TABS,ioos:station:wmo:42051:1,2017-07-04T04:00:00Z,29.6350,-93.6417,2.0,44.64931995,27.71910532,-99999.0,'11111222,11111222,99999999' 
TABS,ioos:station:wmo:42051:1,2017-07-04T04:30:00Z,29.6350,-93.6417,2.0,58.75166987,41.07956305,-99999.0,'11111222,11111222,99999999' 
TABS,ioos:station:wmo:42051:1,2017-07-04T05:00:00Z,29.6350,-93.6417,2.0,70.18289382,44.83516923,-99999.0,'11111222,11111222,99999999' 
TABS,ioos:station:wmo:42051:1,2017-07-04T05:30:00Z,29.6350,-93.6417,2.0,72.92416206,47.0647692,-99999.0,'11111222,11111222,99999999' 
TABS,ioos:station:wmo:42051:1,2017-07-04T06:00:00Z,29.6350,-93.6417,2.0,72.49970647,46.72254381,-99999.0,'11111222,11111222,99999999' 
TABS,ioos:station:wmo:42051:1,2017-07-04T06:30:00Z,29.6350,-93.6417,2.0,76.85278837,43.61315513,-99999.0,'11111222,11111222,99999999' 
TABS,ioos:station:wmo:42051:1,2017-07-04T07:00:00Z,29.6350,-93.6417,2.0,70.13383323,43.5518266,-99999.0,'11111222,11111222,99999999' 
TABS,ioos:station:wmo:42051:1,2017-07-04T07:30:00Z,29.6350,-93.6417,2.0,70.79348241,46.96408202,-99999.0,'11111222,11111222,99999999' 
TABS,ioos:station:wmo:42051:1,2017-07-04T08:00:00Z,29.6350,-93.6417,2.0,68.36630761,48.22714277,-99999.0,'11111222,11111222,99999999' 
TABS,ioos:station:wmo:42051:1,2017-07-04T08:30:00Z,29.6350,-93.6417,2.0,77.94173151,46.09710728,-99999.0,'11111222,11111222,99999999' 
TABS,ioos:station:wmo:42051:1,2017-07-04T09:00:00Z,29.6350,-93.6417,2.0,72.22148049,52.17151809,-99999.0,'11111222,11111222,99999999' 
TABS,ioos:station:wmo:42051:1,2017-07-04T09:30:00Z,29.6350,-93.6417,2.0,80.29350888,53.61757268,-99999.0,'11111222,11111222,99999999' 
TABS,ioos:station:wmo:42051:1,2017-07-04T10:00:00Z,29.6350,-93.6417,2.0,85.80027351,58.30656395,-99999.0,'11111222,11111222,99999999' 
TABS,ioos:station:wmo:42051:1,2017-07-04T10:30:00Z,29.6350,-93.6417,2.0,78.10592628,59.63024904,-99999.0,'11111222,11111222,99999999' 
TABS,ioos:station:wmo:42051:1,2017-07-04T11:00:00Z,29.6350,-93.6417,2.0,78.18086954,61.5652475,-99999.0,'11111222,11111222,99999999' 
TABS,ioos:station:wmo:42051:1,2017-07-04T11:30:00Z,29.6350,-93.6417,2.0,82.81833929,62.71199247,-99999.0,'11111222,11111222,99999999' 
TABS,ioos:station:wmo:42051:1,2017-07-04T12:00:00Z,29.6350,-93.6417,2.0,96.29903066,59.97206433,-99999.0,'11111222,11111222,99999999' 
TABS,ioos:station:wmo:42051:1,2017-07-04T12:30:00Z,29.6350,-93.6417,2.0,96.05255494,58.51619434,-99999.0,'11111222,11111222,99999999' 
TABS,ioos:station:wmo:42051:1,2017-07-04T13:00:00Z,29.6350,-93.6417,2.0,95.60678344,55.47540446,-99999.0,'11111222,11111222,99999999' 
TABS,ioos:station:wmo:42051:1,2017-07-04T13:30:00Z,29.6350,-93.6417,2.0,92.38725731,54.25708894,-99999.0,'11111222,11111222,99999999' 
TABS,ioos:station:wmo:42051:1,2017-07-04T14:00:00Z,29.6350,-93.6417,2.0,98.09651823,53.10938523,-99999.0,'11111222,11111222,99999999' 
TABS,ioos:station:wmo:42051:1,2017-07-04T14:30:00Z,29.6350,-93.6417,2.0,98.5890069,59.32533354,-99999.0,'11111222,11111222,99999999' 
TABS,ioos:station:wmo:42051:1,2017-07-04T15:00:00Z,29.6350,-93.6417,2.0,90.92953951,55.47730076,-99999.0,'11111222,11111222,99999999' 
TABS,ioos:station:wmo:42051:1,2017-07-04T15:30:00Z,29.6350,-93.6417,2.0,79.82132959,49.96640171,-99999.0,'11111222,11111222,99999999' 
TABS,ioos:station:wmo:42051:1,2017-07-04T16:00:00Z,29.6350,-93.6417,2.0,78.14606594,57.83333295,-99999.0,'11111222,11111222,99999999' 